Regional Weather Roundup
Issued by NWS

Home | Current Version | Previous Version | Graphics & Text | Print | Product List | Glossary On
Versions: 1 2 3 4 5 6 7 8 9 10 11 12 13 14 15 16 17 18 19 20 21 22 23 24 25 26 27 28 29 30 31 32 33 34 35 36 37 38 39 40 41 42 43 44 45 46 47 48 49 50
012
ASUS43 KLMK 160910
RWRKY
KENTUCKY REGIONAL WEATHER ROUNDUP
NATIONAL WEATHER SERVICE LOUISVILLE KY
400 AM EST TUE JAN 16 2018

NOTE "FAIR" INDICATES FEW OR NO CLOUDS BELOW 12,000 FEET
WITH NO SIGNIFICANT WEATHER AND/OR OBSTRUCTIONS TO VISIBILITY.

KYZ001>023-026-027-061>063-070>075-161000-
WESTERN AND SOUTH CENTRAL KENTUCKY

CITY           SKY/WX    TMP DP  RH WIND       PRES   REMARKS
PADUCAH        CLOUDY    13   0  56 N12       30.59R WCI  -1
HENDERSON      FAIR      10   1  67 NW10      30.59R WCI  -4
OWENSBORO      CLOUDY    10   2  69 NW13      30.58R WCI  -5
HOPKINSVILLE   LGT SNOW  12   9  85 NW12      30.54R BLWGSNOWWCI  -2
BOWLING GREEN  LGT SNOW  17  13  84 VRB6      30.53R FOG     WCI   9
GLASGOW        LGT SNOW  16  13  88 NW5       30.49S WCI   9
$$

KYZ024-025-028>034-038-045-046-053-161000-
NORTH CENTRAL KENTUCKY

CITY           SKY/WX    TMP DP  RH WIND       PRES   REMARKS
LOUISVILLE/SDF LGT SNOW  13   6  74 NW9       30.51R WCI   1
LOUISVILLE/LOU LGT SNOW  12   5  73 NW12      30.51R WCI  -2
FORT KNOX      CLOUDY    11   6  79 NW9       30.47S BLWGSNOWWCI  -1
$$

KYZ035>037-039>044-047>052-055>060-089>105-161000-
NORTHEAST KENTUCKY

CITY           SKY/WX    TMP DP  RH WIND       PRES   REMARKS
LEXINGTON      CLOUDY    15   9  76 NW9       30.44R WCI   3
COVINGTON      FLURRIES  11   6  81 NW9       30.43R WCI  -2
FRANKFORT      LGT SNOW  14   8  77 NW6       30.46R WCI   5
$$

KYZ054-064>069-076>088-106>120-161000-
SOUTHEAST KENTUCKY

CITY           SKY/WX    TMP DP  RH WIND       PRES   REMARKS
JACKSON        CLOUDY    29  23  78 NW5       30.35R WCI  24
LONDON         CLOUDY    29  22  75 NW6       30.37R WCI  23
SOMERSET       CLOUDY    27  21  80 NW7       30.43R WCI  19
MIDDLESBORO    CLOUDY    30  27  88 CALM      30.36R
MONTICELLO     FLURRIES  24  19  81 NW9       30.45R WCI  14
$$





USA.gov is the U.S. government's official web portal to all federal, state and local government web resources and services.